Location: G�ndlingen
(48.0142°N, 7.6396°E)
Time: 18:07:59
(UTC+00:00)

JB-3 - Pass Details

Date: 05 July 2020
Orbit: 526 x 590 km, 97.3° (Epoch: 13 August)

Event Time Altitude Azimuth Distance (km) Brightness Sun altitude
Rises 21:40:51 0° 14° (NNE) 2,695 8.7 -14.9°
Reaches altitude 10° 21:42:59 10° 16° (NNE) 1,793 7.6 -15.0°
Maximum altitude 21:46:50 74° 101° (ESE) 554 4.2 -15.3°
Enters shadow 21:48:52 27° 183° (S) 1,048 5.2 -15.5°
